Tekamah, NE

8:45 PM CST on February 26, 2017 (GMT -0600)
Tekamah

Weather History for KTQE - August, 2013

Change the Weather History Date:

Saturday, August 17, 2013

  Actual Average Record
Temperature  
Mean Temperature 68 °F -  
Max Temperature 80 °F 88 °F 104 °F (1983)
Min Temperature 55 °F 63 °F 46 °F (2012)
Cooling Degree Days 2    
Growing Degree Days 18 (Base 50)    
Moisture  
Dew Point 57 °F    
Average Humidity 83    
Maximum Humidity 96    
Minimum Humidity 48    
Precipitation  
Precipitation 0.00 in - - ()
Sea Level Pressure  
Sea Level Pressure 30.15 in    
Wind  
Wind Speed 3 mph (SSE)    
Max Wind Speed 12 mph    
Max Gust Speed -    
Visibility 5 miles    
Events Fog    
Averages and records for this station are not official NWS values.
T = Trace of Precipitation, MM = Missing Value Source: NWS Daily Summary

Daily Weather History Graph

Daily Weather History Graph

Search for Another Location

Airport or City:

Trip Planner

Search our weather history database for the weather conditions in past years. The results will help you decide how hot, cold, wet, or windy it might be!

Date:

Astronomy

Aug. 17, 2013 Rise Set
Actual Time 6:35 AM CDT 8:21 PM CDT
Civil Twilight 6:05 AM CDT 8:50 PM CDT
Nautical Twilight 5:29 AM CDT 9:26 PM CDT
Astronomical Twilight 4:50 AM CDT 10:05 PM CDT
Moon 5:39 PM CDT (8/17) 2:38 AM CDT (8/17)
Length of Visible Light 14h 45m
Length of Day
13h 45m
Waxing Gibbous, 84% of the Moon is Illuminated
Aug 17
Waxing Gibbous
Aug 20
Full
Aug 28
Last Quarter
Sep 5
New
Sep 12
First Quarter

Hourly Weather History & Observations

Time (CDT) Temp. Heat Index Dew Point Humidity Pressure Visibility Wind Dir Wind Speed Gust Speed Precip Events Conditions
12:54 AM 63.0 °F - 61.0 °F 93% 30.16 in 5.0 mi Calm Calm - N/A   Overcast
1:54 AM 59.0 °F - 57.0 °F 93% 30.15 in 4.0 mi Calm Calm - N/A   Clear
2:50 AM 57.2 °F - 55.4 °F 94% 30.17 in 1.5 mi Calm Calm - N/A   Partly Cloudy
2:54 AM 57.0 °F - 55.0 °F 93% 30.15 in 1.0 mi Calm Calm - N/A   Partly Cloudy
3:09 AM 57.2 °F - 55.4 °F 94% 30.18 in 0.2 mi Calm Calm - N/A Fog Fog
3:54 AM 55.9 °F - 54.0 °F 93% 30.16 in 0.2 mi Calm Calm - N/A Fog Fog
4:09 AM 55.4 °F - 53.6 °F 94% 30.18 in 0.2 mi Calm Calm - N/A Fog Fog
4:14 AM 55.4 °F - 53.6 °F 94% 30.18 in 3.0 mi Calm Calm - N/A   Partly Cloudy
4:22 AM 55.4 °F - 53.6 °F 94% 30.18 in 1.5 mi Calm Calm - N/A   Partly Cloudy
4:30 AM 55.4 °F - 53.6 °F 94% 30.18 in 0.2 mi SSW 3.5 mph - N/A Fog Fog
4:47 AM 57.2 °F - 55.4 °F 94% 30.18 in 1.8 mi South 3.5 mph - N/A   Mostly Cloudy
4:54 AM 57.0 °F - 55.9 °F 96% 30.16 in 1.8 mi South 3.5 mph - N/A   Mostly Cloudy
5:08 AM 57.2 °F - 55.4 °F 94% 30.18 in 2.0 mi Calm Calm - N/A   Overcast
5:30 AM 57.2 °F - 55.4 °F 94% 30.18 in 1.5 mi South 3.5 mph - N/A   Overcast
5:36 AM 57.2 °F - 55.4 °F 94% 30.18 in 0.8 mi Calm Calm - N/A   Mostly Cloudy
5:54 AM 57.0 °F - 55.9 °F 96% 30.15 in 0.5 mi South 3.5 mph - N/A Fog Fog
6:06 AM 57.2 °F - 55.4 °F 94% 30.17 in 1.5 mi SE 5.8 mph - N/A   Overcast
6:17 AM 57.2 °F - 55.4 °F 94% 30.17 in 3.0 mi ESE 5.8 mph - N/A   Overcast
6:54 AM 59.0 °F - 57.0 °F 93% 30.17 in 3.0 mi SW 4.6 mph - N/A   Overcast
7:04 AM 59.0 °F - 57.2 °F 94% 30.19 in 2.5 mi South 3.5 mph - N/A   Mostly Cloudy
7:23 AM 60.8 °F - 57.2 °F 88% 30.19 in 1.5 mi Calm Calm - N/A   Overcast
7:51 AM 60.8 °F - 59.0 °F 94% 30.19 in 2.0 mi Calm Calm - N/A   Overcast
7:54 AM 61.0 °F - 59.0 °F 93% 30.17 in 2.5 mi Calm Calm - N/A   Overcast
8:14 AM 62.6 °F - 59.0 °F 88% 30.20 in 3.0 mi South 3.5 mph - N/A   Overcast
8:54 AM 64.0 °F - 60.1 °F 87% 30.18 in 4.0 mi SSE 3.5 mph - N/A   Overcast
9:54 AM 69.1 °F - 62.1 °F 78% 30.18 in 8.0 mi SSE 5.8 mph - N/A   Mostly Cloudy
10:54 AM 73.9 °F - 61.0 °F 64% 30.17 in 10.0 mi South 10.4 mph - N/A   Clear
11:54 AM 75.9 °F - 57.9 °F 54% 30.16 in 10.0 mi South 11.5 mph - N/A   Clear
12:54 PM 78.1 °F - 57.9 °F 50% 30.15 in 10.0 mi South 9.2 mph - N/A   Clear
1:54 PM 79.0 °F - 57.9 °F 48% 30.14 in 10.0 mi SE 11.5 mph - N/A   Clear
2:54 PM 79.0 °F - 57.9 °F 48% 30.12 in 10.0 mi SSE 8.1 mph - N/A   Clear
3:54 PM 80.1 °F 80.9 °F 60.1 °F 50% 30.12 in 10.0 mi SSE 9.2 mph - N/A   Scattered Clouds
4:54 PM 79.0 °F - 57.9 °F 48% 30.11 in 10.0 mi SSE 8.1 mph - N/A   Partly Cloudy
5:54 PM 78.1 °F - 59.0 °F 52% 30.09 in 10.0 mi SE 9.2 mph - N/A   Clear
6:54 PM 77.0 °F - 59.0 °F 54% 30.09 in 10.0 mi SE 8.1 mph - N/A   Clear
7:54 PM 71.1 °F - 61.0 °F 70% 30.09 in 10.0 mi SE 5.8 mph - N/A   Clear
8:54 PM 64.9 °F - 60.1 °F 84% 30.09 in 9.0 mi SE 6.9 mph - N/A   Clear
9:54 PM 62.1 °F - 59.0 °F 90% 30.10 in 6.0 mi South 3.5 mph - N/A   Clear
10:54 PM 60.1 °F - 57.9 °F 93% 30.10 in 6.0 mi SSE 5.8 mph - N/A   Clear
11:54 PM 57.9 °F - 55.9 °F 93% 30.11 in 5.0 mi South 3.5 mph - N/A   Clear